Location: Moscow
(55.7500°N, 37.5830°E)
Time: 11:35:31
(UTC+03:00)

Vanguard 3 - Pass Details

Date: 04 December 2021
Orbit: 508 x 3260 km, 33.3° (Epoch: 19 January)

Event Time Altitude Azimuth Distance (km) Brightness Sun altitude
Rises 09:42:10 0° 266° (W) 6,815 11.5 5.1°
Reaches altitude 10° 09:50:07 10° 247° (WSW) 5,272 11.2 5.8°
Maximum altitude 09:56:29 14° 222° (SW) 4,369 11.1 6.2°
Drops below altitude 10° 10:01:45 10° 195° (SSW) 4,173 11.5 6.6°
Sets 10:06:39 0° 172° (S) 4,599 12.5 7.0°
